Time,TemperatureF,DewpointF,PressureIn,WindDirection,WindDirectionDegrees,WindSpeedMPH,WindSpeedGustMPH,Humidity,HourlyPrecipIn,Conditions,Clouds,dailyrainin,SoftwareType,DateUTC
2013-01-12 00:04:00,47.3,45.9,29.97,South,177,2.0,5.8,95,0.00,,,-99.99,FreeWX 2.04,2013-01-12 05:04:00,
2013-01-12 00:09:00,47.5,46.0,29.97,SSW,193,2.0,5.8,95,0.00,,,-99.99,FreeWX 2.04,2013-01-12 05:09:00,
2013-01-12 00:14:00,47.5,46.0,29.94,SSW,195,2.0,5.4,95,0.00,,,-99.99,FreeWX 2.04,2013-01-12 05:14:00,
2013-01-12 00:19:00,47.5,46.0,29.94,SSW,198,2.0,5.8,95,0.00,,,-99.99,FreeWX 2.04,2013-01-12 05:19:00,
2013-01-12 00:24:00,47.7,46.2,29.94,SSW,209,3.0,6.7,95,0.00,,,-99.99,FreeWX 2.04,2013-01-12 05:24:00,
2013-01-12 00:29:00,47.7,46.2,29.94,SSW,202,3.0,5.4,95,0.00,,,-99.99,FreeWX 2.04,2013-01-12 05:29:00,
2013-01-12 00:34:00,47.8,46.4,29.94,SSW,207,2.0,5.8,95,0.00,,,-99.99,FreeWX 2.04,2013-01-12 05:34:00,
2013-01-12 00:39:00,47.8,46.4,29.94,SW,214,2.0,6.9,95,0.00,,,-99.99,FreeWX 2.04,2013-01-12 05:39:00,
2013-01-12 00:44:00,47.8,46.4,29.97,SSW,209,3.0,5.4,95,0.00,,,-99.99,FreeWX 2.04,2013-01-12 05:44:00,
2013-01-12 00:49:00,47.7,46.2,29.97,SW,219,3.0,4.9,95,0.00,,,-99.99,FreeWX 2.04,2013-01-12 05:49:00,
2013-01-12 00:54:00,47.7,46.2,29.97,SSW,213,3.0,6.7,95,0.00,,,-99.99,FreeWX 2.04,2013-01-12 05:54:00,
2013-01-12 00:59:00,47.5,46.0,29.97,WSW,247,2.0,4.9,95,0.00,,,-99.99,FreeWX 2.04,2013-01-12 05:59:00,
2013-01-12 01:04:00,47.3,45.9,29.97,SW,236,1.0,4.0,95,0.00,,,-99.99,FreeWX 2.04,2013-01-12 06:04:00,
2013-01-12 01:09:00,47.3,45.9,29.97,North,-999,0.0,2.7,95,0.00,,,-99.99,FreeWX 2.04,2013-01-12 06:09:00,
2013-01-12 01:14:00,47.3,45.9,29.97,North,-999,0.0,0.0,95,0.00,,,-99.99,FreeWX 2.04,2013-01-12 06:14:00,
2013-01-12 01:19:00,47.3,45.9,29.97,North,-999,0.0,5.8,95,0.00,,,-99.99,FreeWX 2.04,2013-01-12 06:19:00,
2013-01-12 01:24:00,47.1,46.0,29.97,South,187,1.0,5.4,96,0.00,,,-99.99,FreeWX 2.04,2013-01-12 06:24:00,
2013-01-12 01:29:00,47.1,46.0,29.97,South,190,2.0,6.3,96,0.00,,,-99.99,FreeWX 2.04,2013-01-12 06:29:00,
2013-01-12 01:34:00,47.3,46.2,29.97,SSW,207,4.0,6.7,96,0.00,,,-99.99,FreeWX 2.04,2013-01-12 06:34:00,
2013-01-12 01:39:00,47.5,46.4,29.97,SSW,198,4.0,4.9,96,0.00,,,-99.99,FreeWX 2.04,2013-01-12 06:39:00,
2013-01-12 01:44:00,47.5,46.4,29.97,SSW,194,4.0,7.4,96,0.00,,,-99.99,FreeWX 2.04,2013-01-12 06:44:00,
2013-01-12 01:49:00,47.5,46.4,29.97,SSW,200,4.0,6.9,96,0.00,,,-99.99,FreeWX 2.04,2013-01-12 06:49:00,
2013-01-12 01:54:00,47.5,46.4,29.97,South,188,3.0,5.4,96,0.00,,,-99.99,FreeWX 2.04,2013-01-12 06:54:00,
2013-01-12 01:59:00,47.5,46.4,29.97,South,187,3.0,6.3,96,0.00,,,-99.99,FreeWX 2.04,2013-01-12 06:59:00,
2013-01-12 02:04:00,47.5,46.4,29.97,SSW,201,4.0,6.9,96,0.00,,,-99.99,FreeWX 2.04,2013-01-12 07:04:00,
2013-01-12 02:09:00,47.5,46.4,29.97,SSW,204,4.0,6.3,96,0.00,,,-99.99,FreeWX 2.04,2013-01-12 07:09:00,
2013-01-12 02:15:00,47.5,46.4,29.97,SSW,197,4.0,6.7,96,0.00,,,-99.99,FreeWX 2.04,2013-01-12 07:15:00,
2013-01-12 02:20:00,47.5,46.4,29.97,SSW,203,4.0,8.3,96,0.00,,,-99.99,FreeWX 2.04,2013-01-12 07:20:00,
2013-01-12 02:25:00,47.5,46.4,29.97,SW,223,4.0,7.8,96,0.00,,,-99.99,FreeWX 2.04,2013-01-12 07:25:00,
2013-01-12 02:30:00,47.5,46.4,29.97,SW,222,4.0,6.7,96,0.00,,,-99.99,FreeWX 2.04,2013-01-12 07:30:00,
2013-01-12 02:35:00,47.3,46.2,29.97,SSW,204,4.0,4.9,96,0.00,,,-99.99,FreeWX 2.04,2013-01-12 07:35:00,
2013-01-12 02:40:00,47.3,46.2,29.97,SSW,209,3.0,6.7,96,0.00,,,-99.99,FreeWX 2.04,2013-01-12 07:40:00,
2013-01-12 02:45:00,47.1,46.0,29.97,SSW,206,3.0,5.8,96,0.00,,,-99.99,FreeWX 2.04,2013-01-12 07:45:00,
2013-01-12 02:50:00,47.1,46.0,29.97,SSW,200,4.0,6.3,96,0.00,,,-99.99,FreeWX 2.04,2013-01-12 07:50:00,
2013-01-12 02:55:00,47.1,46.0,29.97,SSW,201,3.0,5.8,96,0.00,,,-99.99,FreeWX 2.04,2013-01-12 07:55:00,
2013-01-12 03:00:00,46.9,45.9,29.97,SSW,203,3.0,5.8,96,0.00,,,-99.99,FreeWX 2.04,2013-01-12 08:00:00,
2013-01-12 03:05:00,47.1,46.0,29.97,SW,214,3.0,6.3,96,0.00,,,-99.99,FreeWX 2.04,2013-01-12 08:05:00,
2013-01-12 03:10:00,47.1,46.0,29.97,SSW,198,3.0,5.4,96,0.00,,,-99.99,FreeWX 2.04,2013-01-12 08:10:00,
2013-01-12 03:15:00,47.1,46.4,29.97,South,184,3.0,5.4,97,0.00,,,-99.99,FreeWX 2.04,2013-01-12 08:15:00,
2013-01-12 03:20:00,47.1,46.4,29.97,SSW,192,3.0,6.3,97,0.00,,,-99.99,FreeWX 2.04,2013-01-12 08:20:00,
2013-01-12 03:25:00,47.1,46.4,29.97,South,184,2.0,5.4,97,0.00,,,-99.99,FreeWX 2.04,2013-01-12 08:25:00,
2013-01-12 03:30:00,47.3,46.6,29.97,South,170,2.0,8.3,97,0.00,,,-99.99,FreeWX 2.04,2013-01-12 08:30:00,
2013-01-12 03:35:00,47.3,46.2,29.97,SSW,192,4.0,6.7,96,0.00,,,-99.99,FreeWX 2.04,2013-01-12 08:35:00,
2013-01-12 03:40:00,47.5,46.8,29.97,SSW,200,4.0,6.3,97,0.00,,,-99.99,FreeWX 2.04,2013-01-12 08:40:00,
2013-01-12 03:45:00,47.5,46.8,29.97,South,188,4.0,6.9,97,0.00,,,-99.99,FreeWX 2.04,2013-01-12 08:45:00,
2013-01-12 03:50:00,47.7,46.8,29.97,South,186,3.0,7.8,97,0.00,,,-99.99,FreeWX 2.04,2013-01-12 08:50:00,
2013-01-12 03:55:00,47.8,46.9,29.97,South,187,3.0,7.4,97,0.00,,,-99.99,FreeWX 2.04,2013-01-12 08:55:00,
2013-01-12 04:00:00,48.0,47.1,29.97,South,185,3.0,6.3,97,0.00,,,-99.99,FreeWX 2.04,2013-01-12 09:00:00,
2013-01-12 04:05:00,48.0,47.1,29.97,South,186,4.0,6.9,97,0.00,,,-99.99,FreeWX 2.04,2013-01-12 09:05:00,
2013-01-12 04:10:00,48.2,47.3,29.97,South,183,3.0,5.4,97,0.00,,,-99.99,FreeWX 2.04,2013-01-12 09:10:00,
2013-01-12 04:15:00,48.4,47.5,29.97,South,187,4.0,6.9,97,0.00,,,-99.99,FreeWX 2.04,2013-01-12 09:15:00,
2013-01-12 04:20:00,48.6,47.7,29.97,South,185,4.0,7.8,97,0.00,,,-99.99,FreeWX 2.04,2013-01-12 09:20:00,
2013-01-12 04:25:00,48.7,47.8,29.97,South,178,3.0,5.8,97,0.00,,,-99.99,FreeWX 2.04,2013-01-12 09:25:00,
2013-01-12 04:30:00,48.9,48.9,29.97,South,186,3.0,6.3,100,0.00,,,-99.99,FreeWX 2.04,2013-01-12 09:30:00,
2013-01-12 04:35:00,49.1,49.1,29.97,South,181,3.0,5.8,100,0.00,,,-99.99,FreeWX 2.04,2013-01-12 09:35:00,
2013-01-12 04:41:00,49.1,48.2,29.97,South,185,3.0,6.3,97,0.00,,,-99.99,FreeWX 2.04,2013-01-12 09:41:00,
2013-01-12 04:46:00,49.3,48.4,29.97,SSW,194,3.0,5.4,97,0.00,,,-99.99,FreeWX 2.04,2013-01-12 09:46:00,
2013-01-12 04:51:00,49.3,48.4,29.97,SSW,192,4.0,6.9,97,0.00,,,-99.99,FreeWX 2.04,2013-01-12 09:51:00,
2013-01-12 04:56:00,49.5,49.5,29.97,South,190,3.0,5.8,100,0.00,,,-99.99,FreeWX 2.04,2013-01-12 09:56:00,
2013-01-12 05:01:00,49.6,49.6,29.97,SSW,193,3.0,6.3,100,0.00,,,-99.99,FreeWX 2.04,2013-01-12 10:01:00,
2013-01-12 05:06:00,49.6,49.6,29.97,SSW,193,4.0,6.7,100,0.00,,,-99.99,FreeWX 2.04,2013-01-12 10:06:00,
2013-01-12 05:11:00,49.8,49.8,29.97,South,187,3.0,6.3,100,0.00,,,-99.99,FreeWX 2.04,2013-01-12 10:11:00,
2013-01-12 05:16:00,50.0,50.0,29.97,South,184,3.0,6.3,100,0.00,,,-99.99,FreeWX 2.04,2013-01-12 10:16:00,
2013-01-12 05:21:00,50.2,50.2,29.97,South,184,4.0,7.4,100,0.00,,,-99.99,FreeWX 2.04,2013-01-12 10:21:00,
2013-01-12 05:26:00,50.2,50.2,29.97,South,191,3.0,8.3,100,0.00,,,-99.99,FreeWX 2.04,2013-01-12 10:26:00,
2013-01-12 05:31:00,50.4,50.4,29.97,South,188,3.0,6.7,100,0.00,,,-99.99,FreeWX 2.04,2013-01-12 10:31:00,
2013-01-12 05:36:00,50.5,50.5,29.97,South,190,3.0,6.3,100,0.00,,,-99.99,FreeWX 2.04,2013-01-12 10:36:00,
2013-01-12 05:41:00,50.5,50.5,29.97,SSW,208,3.0,5.8,100,0.00,,,-99.99,FreeWX 2.04,2013-01-12 10:41:00,
2013-01-12 05:46:00,50.5,50.5,29.97,SSW,206,2.0,5.8,100,0.00,,,-99.99,FreeWX 2.04,2013-01-12 10:46:00,
2013-01-12 05:51:00,50.5,50.5,29.97,SSW,209,2.0,5.8,100,0.00,,,-99.99,FreeWX 2.04,2013-01-12 10:51:00,
2013-01-12 05:56:00,50.5,50.5,29.97,SSW,212,1.0,5.4,100,0.00,,,-99.99,FreeWX 2.04,2013-01-12 10:56:00,
2013-01-12 06:01:00,50.5,50.5,30.00,SSW,206,2.0,5.4,100,0.00,,,-99.99,FreeWX 2.04,2013-01-12 11:01:00,
2013-01-12 06:06:00,50.5,50.5,30.00,SW,217,1.0,0.0,100,0.00,,,-99.99,FreeWX 2.04,2013-01-12 11:06:00,
2013-01-12 06:11:00,50.5,50.5,30.00,WSW,238,1.0,4.5,100,0.00,,,-99.99,FreeWX 2.04,2013-01-12 11:11:00,
2013-01-12 06:16:00,50.5,50.5,30.00,SW,220,2.0,5.4,100,0.00,,,-99.99,FreeWX 2.04,2013-01-12 11:16:00,
2013-01-12 06:21:00,50.5,50.5,30.00,SSW,200,2.0,6.3,100,0.00,,,-99.99,FreeWX 2.04,2013-01-12 11:21:00,
2013-01-12 06:26:00,50.7,50.7,30.00,SSW,197,2.0,5.8,100,0.00,,,-99.99,FreeWX 2.04,2013-01-12 11:26:00,
2013-01-12 06:31:00,50.9,50.9,30.00,SSW,204,3.0,7.8,100,0.00,,,-99.99,FreeWX 2.04,2013-01-12 11:31:00,
2013-01-12 06:36:00,51.4,51.4,30.00,SSW,209,4.0,6.9,100,0.00,,,-99.99,FreeWX 2.04,2013-01-12 11:36:00,
2013-01-12 06:41:00,51.6,51.6,30.00,SW,214,4.0,7.4,100,0.00,,,-99.99,FreeWX 2.04,2013-01-12 11:41:00,
2013-01-12 06:46:00,51.6,51.6,30.00,SW,219,3.0,6.3,100,0.00,,,-99.99,FreeWX 2.04,2013-01-12 11:46:00,
2013-01-12 06:51:00,51.6,51.6,30.00,SW,222,2.0,4.9,100,0.00,,,-99.99,FreeWX 2.04,2013-01-12 11:51:00,
2013-01-12 06:56:00,51.6,51.6,30.00,SSW,211,1.0,5.4,100,0.00,,,-99.99,FreeWX 2.04,2013-01-12 11:56:00,
2013-01-12 07:01:00,51.4,51.4,30.00,SW,218,2.0,6.9,100,0.00,,,-99.99,FreeWX 2.04,2013-01-12 12:01:00,
2013-01-12 07:06:00,51.4,51.4,30.00,SSW,213,2.0,4.9,100,0.00,,,-99.99,FreeWX 2.04,2013-01-12 12:06:00,
2013-01-12 07:11:00,51.3,51.3,30.00,South,191,2.0,4.0,100,0.00,,,-99.99,FreeWX 2.04,2013-01-12 12:11:00,
2013-01-12 07:16:00,51.3,51.3,30.00,SSW,204,2.0,5.4,100,0.00,,,-99.99,FreeWX 2.04,2013-01-12 12:16:00,
2013-01-12 07:21:00,50.9,50.9,30.00,SSW,213,2.0,6.3,100,0.00,,,-99.99,FreeWX 2.04,2013-01-12 12:21:00,
2013-01-12 07:26:00,50.9,50.9,30.00,SW,214,2.0,6.7,100,0.00,,,-99.99,FreeWX 2.04,2013-01-12 12:26:00,
2013-01-12 07:31:00,51.1,51.1,30.00,SSW,208,3.0,6.3,100,0.00,,,-99.99,FreeWX 2.04,2013-01-12 12:31:00,
2013-01-12 07:36:00,51.1,51.1,30.00,South,191,3.0,6.9,100,0.00,,,-99.99,FreeWX 2.04,2013-01-12 12:36:00,
2013-01-12 07:42:00,51.1,51.1,30.00,SSW,206,3.0,6.7,100,0.00,,,-99.99,FreeWX 2.04,2013-01-12 12:42:00,
2013-01-12 07:47:00,51.3,51.3,30.00,SSW,213,3.0,5.8,100,0.00,,,-99.99,FreeWX 2.04,2013-01-12 12:47:00,
2013-01-12 07:52:00,51.3,51.3,30.00,SSW,202,2.0,5.4,100,0.00,,,-99.99,FreeWX 2.04,2013-01-12 12:52:00,
2013-01-12 07:57:00,51.3,51.3,30.00,SSW,211,2.0,6.7,100,0.00,,,-99.99,FreeWX 2.04,2013-01-12 12:57:00,
2013-01-12 08:02:00,51.4,51.4,30.00,SSW,210,3.0,6.3,100,0.00,,,-99.99,FreeWX 2.04,2013-01-12 13:02:00,
2013-01-12 08:07:00,51.6,51.6,30.00,SSW,198,4.0,7.4,100,0.00,,,-99.99,FreeWX 2.04,2013-01-12 13:07:00,
2013-01-12 08:12:00,51.6,51.6,30.00,SSW,201,4.0,7.4,100,0.00,,,-99.99,FreeWX 2.04,2013-01-12 13:12:00,
2013-01-12 08:17:00,51.6,51.6,30.00,SSW,210,4.0,7.4,100,0.00,,,-99.99,FreeWX 2.04,2013-01-12 13:17:00,
2013-01-12 08:22:00,51.8,51.8,30.00,SSW,209,4.0,8.7,100,0.00,,,-99.99,FreeWX 2.04,2013-01-12 13:22:00,
2013-01-12 08:27:00,52.0,52.0,30.00,SSW,194,4.0,8.7,100,0.00,,,-99.99,FreeWX 2.04,2013-01-12 13:27:00,
2013-01-12 08:36:00,52.2,52.2,30.00,SSW,194,4.0,6.3,100,0.00,,,-99.99,FreeWX 2.04,2013-01-12 13:36:00,
2013-01-12 08:41:00,52.2,52.2,30.00,South,188,3.0,7.8,100,0.00,,,-99.99,FreeWX 2.04,2013-01-12 13:41:00,
2013-01-12 08:46:00,52.3,52.3,30.03,SSW,192,3.0,8.3,100,0.00,,,-99.99,FreeWX 2.04,2013-01-12 13:46:00,
2013-01-12 08:51:00,52.5,52.5,30.03,SSW,198,4.0,9.2,100,0.00,,,-99.99,FreeWX 2.04,2013-01-12 13:51:00,
2013-01-12 08:56:00,52.7,52.7,30.03,SSW,208,4.0,6.9,100,0.00,,,-99.99,FreeWX 2.04,2013-01-12 13:56:00,
2013-01-12 09:01:00,52.9,52.9,30.03,SW,216,4.0,8.3,100,0.00,,,-99.99,FreeWX 2.04,2013-01-12 14:01:00,
2013-01-12 09:06:00,52.9,52.9,30.03,SW,219,4.0,7.4,100,0.00,,,-99.99,FreeWX 2.04,2013-01-12 14:06:00,
2013-01-12 09:11:00,53.1,53.1,30.03,SSW,213,4.0,8.7,100,0.00,,,-99.99,FreeWX 2.04,2013-01-12 14:11:00,
2013-01-12 09:16:00,53.4,53.4,30.03,SW,218,4.0,6.9,100,0.00,,,-99.99,FreeWX 2.04,2013-01-12 14:16:00,
2013-01-12 09:21:00,53.6,53.6,30.03,SW,220,4.0,9.6,100,0.00,,,-99.99,FreeWX 2.04,2013-01-12 14:21:00,
2013-01-12 09:26:00,53.8,53.8,30.03,SW,216,5.0,7.4,100,0.00,,,-99.99,FreeWX 2.04,2013-01-12 14:26:00,
2013-01-12 09:31:00,54.0,54.0,30.03,SSW,202,5.0,8.3,100,0.00,,,-99.99,FreeWX 2.04,2013-01-12 14:31:00,
2013-01-12 09:36:00,54.3,54.3,30.03,SSW,213,4.0,6.7,100,0.00,,,-99.99,FreeWX 2.04,2013-01-12 14:36:00,
2013-01-12 09:41:00,54.7,54.7,30.03,SW,216,4.0,10.5,100,0.00,,,-99.99,FreeWX 2.04,2013-01-12 14:41:00,
2013-01-12 09:46:00,55.0,55.0,30.03,SW,215,5.0,8.7,100,0.00,,,-99.99,FreeWX 2.04,2013-01-12 14:46:00,
2013-01-12 09:51:00,55.6,55.6,30.03,SW,222,5.0,9.6,100,0.00,,,-99.99,FreeWX 2.04,2013-01-12 14:51:00,
2013-01-12 09:56:00,55.8,55.8,30.03,SSW,211,6.0,10.5,100,0.00,,,-99.99,FreeWX 2.04,2013-01-12 14:56:00,
2013-01-12 10:02:00,55.9,55.9,30.03,SSW,210,6.0,8.7,100,0.00,,,-99.99,FreeWX 2.04,2013-01-12 15:02:00,
2013-01-12 10:07:00,56.1,56.1,30.03,SSW,212,5.0,8.7,100,0.00,,,-99.99,FreeWX 2.04,2013-01-12 15:07:00,
2013-01-12 10:12:00,56.3,56.3,30.03,SSW,212,6.0,11.2,100,0.00,,,-99.99,FreeWX 2.04,2013-01-12 15:12:00,
2013-01-12 10:17:00,56.5,56.5,30.03,SW,214,6.0,10.1,100,0.00,,,-99.99,FreeWX 2.04,2013-01-12 15:17:00,
2013-01-12 10:22:00,56.7,55.8,30.03,SSW,211,6.0,11.2,97,0.00,,,-99.99,FreeWX 2.04,2013-01-12 15:22:00,
2013-01-12 10:27:00,56.8,55.8,30.03,SW,215,5.0,8.7,96,0.00,,,-99.99,FreeWX 2.04,2013-01-12 15:27:00,
2013-01-12 10:32:00,56.8,55.0,30.03,SSW,211,5.0,9.2,94,0.00,,,-99.99,FreeWX 2.04,2013-01-12 15:32:00,
2013-01-12 10:37:00,57.0,55.0,30.03,SW,216,5.0,11.0,93,0.00,,,-99.99,FreeWX 2.04,2013-01-12 15:37:00,
2013-01-12 10:42:00,57.0,54.5,30.03,SW,219,6.0,9.6,91,0.00,,,-99.99,FreeWX 2.04,2013-01-12 15:42:00,
2013-01-12 10:47:00,57.2,54.3,30.03,SW,216,5.0,11.2,90,0.00,,,-99.99,FreeWX 2.04,2013-01-12 15:47:00,
2013-01-12 10:52:00,57.2,54.0,30.03,SW,222,5.0,6.7,89,0.00,,,-99.99,FreeWX 2.04,2013-01-12 15:52:00,
2013-01-12 10:57:00,57.4,53.8,30.03,SW,216,5.0,11.0,88,0.00,,,-99.99,FreeWX 2.04,2013-01-12 15:57:00,
2013-01-12 11:02:00,57.7,54.0,30.03,SW,218,5.0,8.3,87,0.00,,,-99.99,FreeWX 2.04,2013-01-12 16:02:00,
2013-01-12 11:07:00,57.9,53.8,30.03,SW,219,5.0,8.3,86,0.00,,,-99.99,FreeWX 2.04,2013-01-12 16:07:00,
2013-01-12 11:12:00,58.1,53.6,30.03,SW,221,5.0,7.4,85,0.00,,,-99.99,FreeWX 2.04,2013-01-12 16:12:00,
2013-01-12 11:17:00,58.3,53.4,30.03,SW,230,4.0,6.9,84,0.00,,,-99.99,FreeWX 2.04,2013-01-12 16:17:00,
2013-01-12 11:22:00,58.6,53.4,30.03,SW,228,5.0,10.1,83,0.00,,,-99.99,FreeWX 2.04,2013-01-12 16:22:00,
2013-01-12 11:27:00,58.8,53.1,30.03,SW,217,6.0,11.0,81,0.00,,,-99.99,FreeWX 2.04,2013-01-12 16:27:00,
2013-01-12 11:32:00,59.0,53.2,30.03,SW,217,6.0,8.7,81,0.00,,,-99.99,FreeWX 2.04,2013-01-12 16:32:00,
2013-01-12 11:37:00,59.0,52.5,30.03,SW,225,6.0,9.6,79,0.00,,,-99.99,FreeWX 2.04,2013-01-12 16:37:00,
2013-01-12 11:42:00,59.0,52.2,30.03,SW,222,6.0,9.6,78,0.00,,,-99.99,FreeWX 2.04,2013-01-12 16:42:00,
2013-01-12 11:47:00,59.2,52.3,30.03,SW,225,6.0,10.1,78,0.00,,,-99.99,FreeWX 2.04,2013-01-12 16:47:00,
2013-01-12 11:52:00,59.2,52.0,30.03,SW,229,6.0,10.1,77,0.00,,,-99.99,FreeWX 2.04,2013-01-12 16:52:00,
2013-01-12 11:57:00,59.2,52.0,30.03,SW,234,6.0,8.7,77,0.00,,,-99.99,FreeWX 2.04,2013-01-12 16:57:00,
2013-01-12 12:02:00,59.4,52.2,30.00,SW,233,6.0,10.1,77,0.00,,,-99.99,FreeWX 2.04,2013-01-12 17:02:00,
2013-01-12 12:07:00,59.4,52.2,30.00,SW,226,6.0,11.2,77,0.00,,,-99.99,FreeWX 2.04,2013-01-12 17:07:00,
2013-01-12 12:12:00,59.4,51.8,30.00,SW,232,6.0,8.7,76,0.00,,,-99.99,FreeWX 2.04,2013-01-12 17:12:00,
2013-01-12 12:17:00,59.7,52.2,30.03,WSW,238,6.0,8.3,76,0.00,,,-99.99,FreeWX 2.04,2013-01-12 17:17:00,
2013-01-12 12:22:00,59.7,51.8,30.03,WSW,238,6.0,11.0,75,0.00,,,-99.99,FreeWX 2.04,2013-01-12 17:22:00,
2013-01-12 12:27:00,60.1,52.2,30.03,SW,232,5.0,7.4,75,0.00,,,-99.99,FreeWX 2.04,2013-01-12 17:27:00,
2013-01-12 12:33:00,60.6,52.3,30.00,SW,234,4.0,7.8,74,0.00,,,-99.99,FreeWX 2.04,2013-01-12 17:33:00,
2013-01-12 12:38:00,60.8,52.2,30.00,SW,234,4.0,9.2,73,0.00,,,-99.99,FreeWX 2.04,2013-01-12 17:38:00,
2013-01-12 12:43:00,60.8,51.3,30.00,SW,228,6.0,11.0,71,0.00,,,-99.99,FreeWX 2.04,2013-01-12 17:43:00,
2013-01-12 12:48:00,60.8,51.3,30.00,SW,224,5.0,8.7,71,0.00,,,-99.99,FreeWX 2.04,2013-01-12 17:48:00,
2013-01-12 12:53:00,61.0,51.1,30.00,SSW,213,6.0,10.5,70,0.00,,,-99.99,FreeWX 2.04,2013-01-12 17:53:00,
2013-01-12 12:58:00,61.0,50.7,30.00,SSW,206,5.0,6.7,69,0.00,,,-99.99,FreeWX 2.04,2013-01-12 17:58:00,
2013-01-12 13:03:00,61.0,50.7,30.00,SW,215,5.0,7.8,69,0.00,,,-99.99,FreeWX 2.04,2013-01-12 18:03:00,
2013-01-12 13:08:00,60.8,50.5,30.00,SW,214,5.0,8.7,69,0.00,,,-99.99,FreeWX 2.04,2013-01-12 18:08:00,
2013-01-12 13:13:00,60.6,50.0,30.00,SSW,204,4.0,7.8,68,0.00,,,-99.99,FreeWX 2.04,2013-01-12 18:13:00,
2013-01-12 13:18:00,60.6,50.4,30.00,SSW,202,4.0,10.1,69,0.00,,,-99.99,FreeWX 2.04,2013-01-12 18:18:00,
2013-01-12 13:23:00,60.4,50.2,30.00,SSW,194,5.0,8.3,69,0.00,,,-99.99,FreeWX 2.04,2013-01-12 18:23:00,
2013-01-12 13:28:00,60.3,50.4,30.00,South,185,5.0,10.1,70,0.00,,,-99.99,FreeWX 2.04,2013-01-12 18:28:00,
2013-01-12 13:33:00,60.1,50.2,30.00,SSW,194,5.0,9.2,70,0.00,,,-99.99,FreeWX 2.04,2013-01-12 18:33:00,
2013-01-12 13:38:00,60.1,50.7,30.00,SSW,201,3.0,4.9,71,0.00,,,-99.99,FreeWX 2.04,2013-01-12 18:38:00,
2013-01-12 13:43:00,60.1,50.7,30.00,SSW,205,2.0,6.3,71,0.00,,,-99.99,FreeWX 2.04,2013-01-12 18:43:00,
2013-01-12 13:48:00,60.1,50.2,30.00,SSW,205,4.0,8.7,70,0.00,,,-99.99,FreeWX 2.04,2013-01-12 18:48:00,
2013-01-12 13:53:00,60.1,50.2,30.00,SSW,202,5.0,9.2,70,0.00,,,-99.99,FreeWX 2.04,2013-01-12 18:53:00,
2013-01-12 13:58:00,60.1,50.2,30.00,SSW,205,5.0,8.3,70,0.00,,,-99.99,FreeWX 2.04,2013-01-12 18:58:00,
2013-01-12 14:03:00,60.1,50.2,30.00,SSW,203,5.0,10.1,70,0.00,,,-99.99,FreeWX 2.04,2013-01-12 19:03:00,
2013-01-12 14:08:00,59.9,50.0,30.00,SSW,201,5.0,11.0,70,0.00,,,-99.99,FreeWX 2.04,2013-01-12 19:08:00,
2013-01-12 14:13:00,59.9,50.0,30.00,SSW,199,6.0,11.2,70,0.00,,,-99.99,FreeWX 2.04,2013-01-12 19:13:00,
2013-01-12 14:18:00,59.7,50.4,30.00,SSW,192,6.0,8.7,71,0.00,,,-99.99,FreeWX 2.04,2013-01-12 19:18:00,
2013-01-12 14:23:00,59.7,50.4,30.00,South,186,5.0,8.3,71,0.00,,,-99.99,FreeWX 2.04,2013-01-12 19:23:00,
2013-01-12 14:28:00,59.7,50.4,30.00,SSW,195,5.0,8.7,71,0.00,,,-99.99,FreeWX 2.04,2013-01-12 19:28:00,
2013-01-12 14:33:00,59.7,50.0,30.00,South,185,5.0,9.2,70,0.00,,,-99.99,FreeWX 2.04,2013-01-12 19:33:00,
2013-01-12 14:38:00,59.7,50.0,30.00,South,186,6.0,10.5,70,0.00,,,-99.99,FreeWX 2.04,2013-01-12 19:38:00,
2013-01-12 14:43:00,59.7,50.4,30.00,SSW,195,6.0,10.1,71,0.00,,,-99.99,FreeWX 2.04,2013-01-12 19:43:00,
2013-01-12 14:48:00,59.7,50.4,30.00,SSW,197,5.0,8.7,71,0.00,,,-99.99,FreeWX 2.04,2013-01-12 19:48:00,
2013-01-12 14:53:00,59.9,50.5,30.00,SSW,193,5.0,7.8,71,0.00,,,-99.99,FreeWX 2.04,2013-01-12 19:53:00,
2013-01-12 14:58:00,59.9,50.5,30.00,South,191,5.0,9.2,71,0.00,,,-99.99,FreeWX 2.04,2013-01-12 19:58:00,
2013-01-12 15:03:00,59.9,50.9,30.00,SSW,193,5.0,9.6,72,0.00,,,-99.99,FreeWX 2.04,2013-01-12 20:03:00,
2013-01-12 15:08:00,59.9,50.9,30.00,SSW,202,6.0,11.0,72,0.00,,,-99.99,FreeWX 2.04,2013-01-12 20:08:00,
2013-01-12 15:13:00,59.9,50.9,30.00,SSW,199,6.0,11.2,72,0.00,,,-99.99,FreeWX 2.04,2013-01-12 20:13:00,
2013-01-12 15:18:00,59.7,50.7,30.00,SSW,198,5.0,8.7,72,0.00,,,-99.99,FreeWX 2.04,2013-01-12 20:18:00,
2013-01-12 15:23:00,59.7,50.7,30.00,SSW,205,6.0,8.7,72,0.00,,,-99.99,FreeWX 2.04,2013-01-12 20:23:00,
2013-01-12 15:28:00,59.7,50.7,30.00,SSW,207,6.0,10.5,72,0.00,,,-99.99,FreeWX 2.04,2013-01-12 20:28:00,
2013-01-12 15:33:00,59.5,50.5,30.00,SSW,203,6.0,8.3,72,0.00,,,-99.99,FreeWX 2.04,2013-01-12 20:33:00,
2013-01-12 15:38:00,59.5,50.5,30.00,SSW,195,5.0,10.5,72,0.00,,,-99.99,FreeWX 2.04,2013-01-12 20:38:00,
2013-01-12 15:43:00,59.5,50.5,30.00,SSW,194,5.0,7.8,72,0.00,,,-99.99,FreeWX 2.04,2013-01-12 20:43:00,
2013-01-12 15:48:00,59.5,50.5,30.00,SSW,202,5.0,9.2,72,0.00,,,-99.99,FreeWX 2.04,2013-01-12 20:48:00,
2013-01-12 15:53:00,59.5,50.5,30.00,SSW,203,6.0,11.6,72,0.00,,,-99.99,FreeWX 2.04,2013-01-12 20:53:00,
2013-01-12 15:58:00,59.5,50.9,30.00,SSW,200,6.0,8.3,73,0.00,,,-99.99,FreeWX 2.04,2013-01-12 20:58:00,
2013-01-12 16:03:00,59.7,51.1,30.00,SSW,200,6.0,9.2,73,0.00,,,-99.99,FreeWX 2.04,2013-01-12 21:03:00,
2013-01-12 16:13:00,59.7,51.1,30.00,SSW,203,6.0,8.7,73,0.00,,,-99.99,FreeWX 2.04,2013-01-12 21:13:00,
2013-01-12 16:18:00,59.7,51.1,30.00,SSW,198,5.0,7.4,73,0.00,,,-99.99,FreeWX 2.04,2013-01-12 21:18:00,
2013-01-12 16:23:00,59.7,51.1,30.00,SSW,201,5.0,9.6,73,0.00,,,-99.99,FreeWX 2.04,2013-01-12 21:23:00,
2013-01-12 16:28:00,59.7,51.1,30.00,SSW,200,5.0,10.5,73,0.00,,,-99.99,FreeWX 2.04,2013-01-12 21:28:00,
2013-01-12 16:33:00,59.5,51.3,30.00,SSW,193,5.0,8.7,74,0.00,,,-99.99,FreeWX 2.04,2013-01-12 21:33:00,
2013-01-12 16:38:00,59.4,51.1,30.00,SSW,196,4.0,6.3,74,0.00,,,-99.99,FreeWX 2.04,2013-01-12 21:38:00,
2013-01-12 16:43:00,59.2,50.9,30.00,SSW,196,4.0,7.8,74,0.00,,,-99.99,FreeWX 2.04,2013-01-12 21:43:00,
2013-01-12 16:48:00,59.0,51.1,30.00,SSW,202,4.0,5.8,75,0.00,,,-99.99,FreeWX 2.04,2013-01-12 21:48:00,
2013-01-12 16:53:00,58.8,50.9,30.00,SW,221,4.0,6.3,75,0.00,,,-99.99,FreeWX 2.04,2013-01-12 21:53:00,
2013-01-12 16:58:00,58.6,51.1,30.00,SW,223,4.0,5.8,76,0.00,,,-99.99,FreeWX 2.04,2013-01-12 21:58:00,
2013-01-12 17:03:00,58.5,50.9,30.00,SSW,210,4.0,6.7,76,0.00,,,-99.99,FreeWX 2.04,2013-01-12 22:03:00,
2013-01-12 17:08:00,58.3,51.1,30.00,SSW,204,4.0,7.4,77,0.00,,,-99.99,FreeWX 2.04,2013-01-12 22:08:00,
2013-01-12 17:13:00,58.3,51.4,30.00,SSW,199,4.0,6.9,78,0.00,,,-99.99,FreeWX 2.04,2013-01-12 22:13:00,
2013-01-12 17:18:00,58.1,51.3,30.00,SSW,196,4.0,6.7,78,0.00,,,-99.99,FreeWX 2.04,2013-01-12 22:18:00,
2013-01-12 17:23:00,57.9,51.4,30.00,SSW,207,3.0,5.4,79,0.00,,,-99.99,FreeWX 2.04,2013-01-12 22:23:00,
2013-01-12 17:28:00,57.9,51.4,30.00,SSW,209,3.0,5.8,79,0.00,,,-99.99,FreeWX 2.04,2013-01-12 22:28:00,
2013-01-12 17:33:00,57.7,51.6,30.00,SSW,196,2.0,4.5,80,0.00,,,-99.99,FreeWX 2.04,2013-01-12 22:33:00,
2013-01-12 17:38:00,57.6,51.4,30.00,SSW,193,1.0,5.8,80,0.00,,,-99.99,FreeWX 2.04,2013-01-12 22:38:00,
2013-01-12 17:43:00,57.4,51.3,30.00,SSW,198,2.0,4.9,80,0.00,,,-99.99,FreeWX 2.04,2013-01-12 22:43:00,
2013-01-12 17:48:00,57.0,51.3,30.00,SSW,210,2.0,5.4,81,0.00,,,-99.99,FreeWX 2.04,2013-01-12 22:48:00,
2013-01-12 17:53:00,56.8,51.1,30.00,SSW,194,2.0,5.4,81,0.00,,,-99.99,FreeWX 2.04,2013-01-12 22:53:00,
2013-01-12 17:58:00,56.8,51.1,30.00,South,174,2.0,6.3,81,0.00,,,-99.99,FreeWX 2.04,2013-01-12 22:58:00,
2013-01-12 18:07:00,56.7,51.3,30.00,South,187,2.0,5.4,82,0.00,,,-99.99,FreeWX 2.04,2013-01-12 23:07:00,
2013-01-12 18:12:00,56.8,51.8,30.00,South,180,2.0,6.7,83,0.00,,,-99.99,FreeWX 2.04,2013-01-12 23:12:00,
2013-01-12 18:17:00,56.7,51.6,30.00,SSE,165,2.0,4.0,83,0.00,,,-99.99,FreeWX 2.04,2013-01-12 23:17:00,
2013-01-12 18:22:00,56.5,51.4,30.00,North,-999,0.0,0.0,83,0.00,,,-99.99,FreeWX 2.04,2013-01-12 23:22:00,
2013-01-12 18:27:00,56.3,51.4,30.00,North,-999,0.0,0.0,84,0.00,,,-99.99,FreeWX 2.04,2013-01-12 23:27:00,
2013-01-12 18:32:00,56.1,51.3,30.00,North,-999,0.0,3.6,84,0.00,,,-99.99,FreeWX 2.04,2013-01-12 23:32:00,
2013-01-12 18:37:00,55.9,51.3,30.00,North,-999,0.0,4.5,84,0.00,,,-99.99,FreeWX 2.04,2013-01-12 23:37:00,
2013-01-12 18:42:00,55.6,50.9,30.00,North,-999,0.0,0.0,84,0.00,,,-99.99,FreeWX 2.04,2013-01-12 23:42:00,
2013-01-12 18:47:00,55.4,50.7,30.00,North,-999,0.0,0.0,84,0.00,,,-99.99,FreeWX 2.04,2013-01-12 23:47:00,
2013-01-12 18:52:00,55.2,50.7,30.00,North,-999,0.0,0.0,85,0.00,,,-99.99,FreeWX 2.04,2013-01-12 23:52:00,
2013-01-12 18:57:00,55.0,50.5,30.00,North,-999,0.0,0.0,85,0.00,,,-99.99,FreeWX 2.04,2013-01-12 23:57:00,
2013-01-12 19:02:00,54.7,50.2,30.00,North,-999,0.0,0.0,85,0.00,,,-99.99,FreeWX 2.04,2013-01-13 00:02:00,
2013-01-12 19:08:00,54.7,50.5,30.00,North,-999,0.0,0.0,86,0.00,,,-99.99,FreeWX 2.04,2013-01-13 00:08:00,
2013-01-12 19:13:00,54.9,50.7,30.00,North,-999,0.0,0.0,86,0.00,,,-99.99,FreeWX 2.04,2013-01-13 00:13:00,
2013-01-12 19:18:00,54.9,51.1,30.00,North,-999,0.0,0.0,87,0.00,,,-99.99,FreeWX 2.04,2013-01-13 00:18:00,
2013-01-12 19:23:00,54.9,51.4,30.00,North,-999,0.0,0.0,88,0.00,,,-99.99,FreeWX 2.04,2013-01-13 00:23:00,
2013-01-12 19:28:00,54.9,51.4,30.00,North,-999,0.0,0.0,88,0.00,,,-99.99,FreeWX 2.04,2013-01-13 00:28:00,
2013-01-12 19:33:00,54.7,51.3,29.97,North,-999,0.0,4.0,88,0.00,,,-99.99,FreeWX 2.04,2013-01-13 00:33:00,
2013-01-12 19:38:00,54.5,51.1,29.97,North,-999,0.0,3.6,88,0.00,,,-99.99,FreeWX 2.04,2013-01-13 00:38:00,
2013-01-12 19:43:00,54.5,51.3,29.97,North,-999,0.0,4.0,89,0.00,,,-99.99,FreeWX 2.04,2013-01-13 00:43:00,
2013-01-12 19:48:00,54.5,51.3,29.97,North,-999,0.0,2.7,89,0.00,,,-99.99,FreeWX 2.04,2013-01-13 00:48:00,
2013-01-12 19:53:00,54.5,51.6,29.97,North,-999,0.0,0.0,90,0.00,,,-99.99,FreeWX 2.04,2013-01-13 00:53:00,
2013-01-12 19:58:00,54.3,51.4,29.97,North,-999,0.0,0.0,90,0.00,,,-99.99,FreeWX 2.04,2013-01-13 00:58:00,
2013-01-12 20:03:00,54.0,51.1,29.97,North,-999,0.0,0.0,90,0.00,,,-99.99,FreeWX 2.04,2013-01-13 01:03:00,
2013-01-12 20:08:00,54.0,51.1,29.97,ESE,123,1.0,4.0,90,0.00,,,-99.99,FreeWX 2.04,2013-01-13 01:08:00,
2013-01-12 20:13:00,54.1,51.3,29.97,SE,128,1.0,4.0,90,0.00,,,-99.99,FreeWX 2.04,2013-01-13 01:13:00,
2013-01-12 20:18:00,54.1,51.3,29.97,North,-999,0.0,0.0,90,0.00,,,-99.99,FreeWX 2.04,2013-01-13 01:18:00,
2013-01-12 20:23:00,54.1,51.6,29.97,North,-999,0.0,0.0,91,0.00,,,-99.99,FreeWX 2.04,2013-01-13 01:23:00,
2013-01-12 20:28:00,54.3,51.8,29.97,North,-999,0.0,0.0,91,0.00,,,-99.99,FreeWX 2.04,2013-01-13 01:28:00,
2013-01-12 20:33:00,54.5,52.0,29.97,North,-999,0.0,0.0,91,0.00,,,-99.99,FreeWX 2.04,2013-01-13 01:33:00,
2013-01-12 20:38:00,54.3,51.8,29.97,North,-999,0.0,0.0,91,0.00,,,-99.99,FreeWX 2.04,2013-01-13 01:38:00,
2013-01-12 20:43:00,54.1,51.6,29.97,North,-999,0.0,0.0,91,0.00,,,-99.99,FreeWX 2.04,2013-01-13 01:43:00,
2013-01-12 20:48:00,54.1,51.6,29.97,North,-999,0.0,0.0,91,0.00,,,-99.99,FreeWX 2.04,2013-01-13 01:48:00,
2013-01-12 20:53:00,54.0,51.4,29.97,North,-999,0.0,0.0,91,0.00,,,-99.99,FreeWX 2.04,2013-01-13 01:53:00,
2013-01-12 20:58:00,53.6,51.1,29.97,North,-999,0.0,0.0,91,0.00,,,-99.99,FreeWX 2.04,2013-01-13 01:58:00,
2013-01-12 21:03:00,53.4,50.9,29.97,North,-999,0.0,0.0,91,0.00,,,-99.99,FreeWX 2.04,2013-01-13 02:03:00,
2013-01-12 21:08:00,53.1,50.5,29.97,North,-999,0.0,0.0,91,0.00,,,-99.99,FreeWX 2.04,2013-01-13 02:08:00,
2013-01-12 21:13:00,53.1,50.5,29.94,North,-999,0.0,0.0,91,0.00,,,-99.99,FreeWX 2.04,2013-01-13 02:13:00,
2013-01-12 21:18:00,52.7,50.2,29.94,North,-999,0.0,0.0,91,0.00,,,-99.99,FreeWX 2.04,2013-01-13 02:18:00,
2013-01-12 21:23:00,52.5,50.2,29.94,North,-999,0.0,0.0,92,0.00,,,-99.99,FreeWX 2.04,2013-01-13 02:23:00,
2013-01-12 21:28:00,52.2,49.8,29.94,North,-999,0.0,0.0,92,0.00,,,-99.99,FreeWX 2.04,2013-01-13 02:28:00,
2013-01-12 21:33:00,52.0,49.6,29.94,North,-999,0.0,0.0,92,0.00,,,-99.99,FreeWX 2.04,2013-01-13 02:33:00,
2013-01-12 21:38:00,51.8,49.5,29.94,North,-999,0.0,0.0,92,0.00,,,-99.99,FreeWX 2.04,2013-01-13 02:38:00,
2013-01-12 21:43:00,51.8,49.5,29.94,North,-999,0.0,0.0,92,0.00,,,-99.99,FreeWX 2.04,2013-01-13 02:43:00,
2013-01-12 21:48:00,51.8,49.5,29.94,North,-999,0.0,0.0,92,0.00,,,-99.99,FreeWX 2.04,2013-01-13 02:48:00,
2013-01-12 21:53:00,51.8,49.5,29.94,North,-999,0.0,0.0,92,0.00,,,-99.99,FreeWX 2.04,2013-01-13 02:53:00,
2013-01-12 21:58:00,51.8,49.8,29.94,North,-999,0.0,0.0,93,0.00,,,-99.99,FreeWX 2.04,2013-01-13 02:58:00,
2013-01-12 22:03:00,51.8,49.8,29.94,North,-999,0.0,0.0,93,0.00,,,-99.99,FreeWX 2.04,2013-01-13 03:03:00,
2013-01-12 22:08:00,52.0,50.0,29.94,North,-999,0.0,0.0,93,0.00,,,-99.99,FreeWX 2.04,2013-01-13 03:08:00,
2013-01-12 22:13:00,52.0,50.0,29.94,North,-999,0.0,0.0,93,0.00,,,-99.99,FreeWX 2.04,2013-01-13 03:13:00,
2013-01-12 22:18:00,52.2,50.2,29.94,North,-999,0.0,0.0,93,0.00,,,-99.99,FreeWX 2.04,2013-01-13 03:18:00,
2013-01-12 22:23:00,52.5,50.9,29.94,North,-999,0.0,0.0,94,0.00,,,-99.99,FreeWX 2.04,2013-01-13 03:23:00,
2013-01-12 22:28:00,52.7,51.1,29.91,North,-999,0.0,0.0,94,0.00,,,-99.99,FreeWX 2.04,2013-01-13 03:28:00,
2013-01-12 22:33:00,53.1,51.1,29.91,North,-999,0.0,0.0,93,0.00,,,-99.99,FreeWX 2.04,2013-01-13 03:33:00,
2013-01-12 22:38:00,53.2,51.6,29.91,North,-999,0.0,0.0,94,0.00,,,-99.99,FreeWX 2.04,2013-01-13 03:38:00,
2013-01-12 22:44:00,53.4,51.8,29.91,North,-999,0.0,0.0,94,0.00,,,-99.99,FreeWX 2.04,2013-01-13 03:44:00,
2013-01-12 22:49:00,53.6,52.0,29.91,North,-999,0.0,0.0,94,0.00,,,-99.99,FreeWX 2.04,2013-01-13 03:49:00,
2013-01-12 22:54:00,53.4,51.8,29.91,North,-999,0.0,0.0,94,0.00,,,-99.99,FreeWX 2.04,2013-01-13 03:54:00,
2013-01-12 22:59:00,53.4,51.8,29.91,North,-999,0.0,0.0,94,0.00,,,-99.99,FreeWX 2.04,2013-01-13 03:59:00,
2013-01-12 23:04:00,53.2,51.6,29.91,North,-999,0.0,0.0,94,0.00,,,-99.99,FreeWX 2.04,2013-01-13 04:04:00,
2013-01-12 23:09:00,53.2,51.6,29.91,SE,133,1.0,4.0,94,0.00,,,-99.99,FreeWX 2.04,2013-01-13 04:09:00,
2013-01-12 23:14:00,53.4,51.8,29.91,SE,124,2.0,3.6,94,0.00,,,-99.99,FreeWX 2.04,2013-01-13 04:14:00,
2013-01-12 23:19:00,53.4,51.8,29.91,ESE,120,1.0,3.1,94,0.00,,,-99.99,FreeWX 2.04,2013-01-13 04:19:00,
2013-01-12 23:24:00,53.6,52.2,29.91,North,-999,0.0,0.0,95,0.00,,,-99.99,FreeWX 2.04,2013-01-13 04:24:00,
2013-01-12 23:29:00,53.6,52.2,29.88,North,-999,0.0,0.0,95,0.00,,,-99.99,FreeWX 2.04,2013-01-13 04:29:00,
2013-01-12 23:34:00,53.8,52.3,29.88,North,-999,0.0,0.0,95,0.00,,,-99.99,FreeWX 2.04,2013-01-13 04:34:00,
2013-01-12 23:39:00,53.6,52.2,29.88,North,-999,0.0,4.0,95,0.00,,,-99.99,FreeWX 2.04,2013-01-13 04:39:00,
2013-01-12 23:44:00,53.8,52.3,29.88,ESE,116,2.0,4.5,95,0.00,,,-99.99,FreeWX 2.04,2013-01-13 04:44:00,
2013-01-12 23:49:00,54.0,52.5,29.88,SE,124,2.0,4.0,95,0.00,,,-99.99,FreeWX 2.04,2013-01-13 04:49:00,
2013-01-12 23:54:00,54.3,52.9,29.88,SE,131,2.0,4.0,95,0.00,,,-99.99,FreeWX 2.04,2013-01-13 04:54:00,
2013-01-12 23:59:00,54.5,53.1,29.88,SE,129,3.0,5.4,95,0.00,,,-99.99,FreeWX 2.04,2013-01-13 04:59:00,